Regional Weather Roundup
Issued by NWS

Home | Current Version | Previous Version | Text Only | Print | Product List | Glossary On
Versions: 1 2 3 4 5 6 7 8 9 10 11 12 13 14 15 16 17 18 19 20 21 22 23 24 25 26 27 28 29 30 31 32 33 34 35 36 37 38 39 40 41 42 43 44 45 46 47 48 49 50
000
ASUS43 KFSD 260102
RWRSD

WEATHER ROUNDUP FOR SOUTH DAKOTA
NATIONAL WEATHER SERVICE SIOUX FALLS SD
800 PM CDT MON JUL 25 2016

NOTE: "FAIR" INDICATES FEW OR NO CLOUDS BELOW 12,000 FEET WITH NO
SIGNIFICANT WEATHER AND/OR OBSTRUCTIONS TO VISIBILITY.


SDZ001>005-009-010-012>017-260200-
NORTHWEST AND NORTH CENTRAL SOUTH DAKOTA

CITY           SKY/WX    TMP DP  RH WIND       PRES   REMARKS
BUFFALO          N/A     91  47  21 E9        29.90S
FAITH            N/A     91  49  23 S15       29.93F
MOBRIDGE       SUNNY     95  53  24 S12       29.89S
$$

SDZ012>016-024>037-041>051-057-063-072>074-260200-
SOUTHWEST AND SOUTH CENTRAL SOUTH DAKOTA

CITY           SKY/WX    TMP DP  RH WIND       PRES   REMARKS
RAPID CTY ARPT CLOUDY    88  55  32 W3        29.98F
PIERRE         CLOUDY    93  51  23 S13       29.94S
CUSTER         CLOUDY    79  48  33 SE8       30.18R
PHILIP         CLOUDY    91  57  31 S13       29.94F
PINE RIDGE     SUNNY     88  60  38 S15       30.03S
WINNER         FAIR      90  52  27 S15       30.02R
$$

SDZ004>011-016>023-039-040-260200-
NORTHEAST SOUTH DAKOTA

CITY           SKY/WX    TMP DP  RH WIND       PRES   REMARKS
ABERDEEN       SUNNY     85  62  46 S10       29.94F
WATERTOWN      CLEAR     82  63  52 S10       30.02S
BROOKINGS      CLEAR     80  66  62 S7        30.04S
SISSETON         N/A     83  62  49 S12       29.95F
$$

SDZ017-020-022-023-036>040-048>070-260200-
SOUTHEAST SOUTH DAKOTA

CITY           SKY/WX    TMP DP  RH WIND       PRES   REMARKS
SIOUX FALLS    PTCLDY    81  60  48 S10       30.04S
HURON          CLEAR     86  57  37 S10       29.98S
CHAMBERLAIN    SUNNY     88  56  33 S9        30.00S
MITCHELL       CLEAR     86  58  38 S9        30.01S
YANKTON        CLEAR     82  63  51 SE6       30.02S
$$

ABBREVIATIONS USED IN REMARKS
   TC - TEMPERATURE IN CELSIUS
  WCI - WIND CHILL INDEX
   HX - HEAT INDEX
  VSB - VISIBILITY




USA.gov is the U.S. government's official web portal to all federal, state and local government web resources and services.